Regional Weather Roundup
Issued by NWS

Home | Current Version | Previous Version | Graphics & Text | Print | Product List | Glossary Off
Versions: 1 2 3 4 5 6 7 8 9 10 11 12 13 14 15 16 17 18 19 20 21 22 23 24 25 26 27 28 29 30 31 32 33 34 35 36 37 38 39 40 41 42 43 44 45 46 47 48 49 50

000
ASUS43 KLSX 270807
RWRMO

WEATHER SUMMARY FOR MISSOURI
NATIONAL WEATHER SERVICE SPRINGFIELD MO
300 AM CDT WED MAY 27 2015

NOTE: "FAIR" INDICATES FEW OR NO CLOUDS BELOW 12,000 FEET WITH NO
       SIGNIFICANT WEATHER AND/OR OBSTRUCTIONS TO VISIBILITY.
       CURRENT SKY AND/OR WEATHER CONDITIONS ARE NOT AVAILABLE FOR
       CHILLICOTHE AND FARMINGTON.

MOZ001>031-035>038-043-044-053-054-270900-
...NORTHERN AND WESTERN MISSOURI...

CITY           SKY/WX    TMP DP  RH WIND       PRES   REMARKS
KANSAS CTY INT CLEAR     61  55  81 W5        29.97R
KANSAS C DTWN  CLEAR     65  56  72 SW5       29.97R
LEE`S SUMMIT   PTCLDY    63  60  90 W5        29.97S
ST JOSEPH      CLEAR     59  55  87 NW6       29.96S
CHILLICOTHE      N/A     60  58  92 CALM      29.96R
KIRKSVILLE     PTCLDY    62  60  93 SW3       29.94R

$$
MOZ066>068-077>081-088>096-101>105-270900-
...SOUTHWEST MISSOURI...

CITY           SKY/WX    TMP DP  RH WIND       PRES   REMARKS
SPRINGFIELD    CLOUDY    67  62  84 S12       29.97F
JOPLIN         CLOUDY    68  66  93 SW9       29.99S

$$
MOZ032>034-039>042-045>050-055>058-069>072-270900-
...CENTRAL MISSOURI...

CITY           SKY/WX    TMP DP  RH WIND       PRES   REMARKS
COLUMBIA       CLEAR     65  61  87 W5        29.96S
JEFFERSON CITY PTCLDY    65  61  87 E5        29.96S
ROLLA          MOCLDY    64  62  93 S9        29.99R
SEDALIA        CLEAR     66  61  84 SW7       29.97R
WHITEMAN AFB   PTCLDY    67  63  87 W7        29.95R
WARRENSBURG    PTCLDY    64  63  94 SW7       29.96R
OSAGE BEACH    MOCLDY    63  61  94 S3        29.99R THUNDER

$$
MOZ051-052-059>065-270900-
...EAST CENTRAL MISSOURI...

CITY           SKY/WX    TMP DP  RH WIND       PRES   REMARKS
ST LOUIS INTL  PTCLDY    71  61  70 S10       29.98S
SPIRIT OF STL  PTCLDY   N/A N/A N/A SW3       29.97R
ST CHARLES     PTCLDY    67  62  84 S8        29.96S

$$
MOZ072>076-082>087-097>100-106>115-270900-
...SOUTH CENTRAL AND SOUTHEAST MISSOURI...

CITY           SKY/WX    TMP DP  RH WIND       PRES   REMARKS
CAPE GIRARDEAU PTCLDY    65  63  93 S6        30.04R
FARMINGTON     CLEAR     64  61  88 S8        30.06F
POPLAR BLUFF   PTCLDY    65  62  90 S3        30.03S
WEST PLAINS    MOCLDY    66  63  90 S5        30.04F

$$



USA.gov is the U.S. government's official web portal to all federal, state and local government web resources and services.